Find Starlink 37205

NORAD ID: 68332 Int'l Des: 2026-059 Owner: SPXS Country: US Constellation: starlink operational
LEOCIRCULAR

リアルタイム位置

3D地球を読み込み中...

Starlink 37205について

説明を読み込み中...

次回通過

Passes for default location (London). Set your location on the main map for personalized predictions.

高度履歴

Loading altitude history...

軌道要素

1 68332U 26059M 26127.15043145 -.00202406 00000-0 -69614-2 0 9999
2 68332 53.1591 76.9146 0001003 130.2780 229.8308 15.30418495 7128
Epoch: May 7, 2026 • Age: 14 hours

現在のステータス

高度 489.6 km
速度 7.62 km/s
衛星直下点 -42.30°S, 173.7°E
打ち上げ日 Mar 22, 2026
運用期間 0.1 years
タイプ internet

技術仕様

分類 Payload
質量 575.00 kg
乾燥質量 530.00 kg
総質量 575.00 kg
長さ 0.30 m
直径 4.10 m
スパン 29.00 m
形状 Box + pan
製造者 SPXS
バスタイプ Starlink V2MO
フェーズステータス In Orbit
所有者/国 SPXS/US

Most Searched